sat.trackr.live / text

‹ back to catalog

ONEWEB-0198

NORAD 48216 · 2021-031G

PAYLOAD ACTIVE UNKNOWN

§ Identity

Operator
Country
UK
Launch date
2021-04-25
Launch site
VOSTO
Launch vehicle
Mass (kg)
RCS (m²)

Purposes: comms

External: N2YO · Heavens-Above · Gunter

§ Orbital elements

Epoch: 2026-09-14T23:16:43.584960Z

Period
109.55 min
Inclination
87.8886°
Eccentricity
0.0001513
Mean motion
13.14501984 rev/d
Perigee alt
1,204.6 km
Apogee alt
1,206.9 km
Semi-major
7,583.9 km
B*
1.8956e-4
RAAN
271.7977°
Arg perigee
83.2743°
Mean anomaly
276.8559°
Rev number
26,028

§ Raw data

ONEWEB-01981 48216U 21031G   26257.96994890  .00000083  00000+0  18956-3 0  99962 48216  87.8886 271.7977 0001513  83.2743 276.8559 13.14501984260281

JSON: /api/v1/satellites/48216 · /tle

For live sub-satellite position, see the globe view (requires WebGL).

§ Visibility from observer

Set your observer location to see the next 7 days of passes ≥ 10°. The values pass through the URL so the page stays shareable.

No JS? Fill the form by hand. The geolocation button needs JavaScript.